Project,Study,Ord_Occ,Event_Num,Cast_ID,Date_Time_UTC,Date_Time_PST,Lat_Dec,Lon_Dec,Sta_ID,Line,Sta,Depth,Pressure,PrQ,Temp1,Temp1Q,Temp2,Temp2Q,TempAve,Salt1,Salt1Q,Salt1_Corr,Salt2,Salt2Q,Salt2_Corr,SaltAve_Corr,Ox1,Ox1Q,Ox1_CruiseCorr,Ox1_StaCorr,Ox2,Ox2Q,Ox2_CruiseCorr,Ox2_StaCorr,OxAve_StaCorr,Ox1uM,Ox1uM_CruiseCorr,Ox1uM_StaCorr,Ox2uM,Ox2uM_CruiseCorr,Ox2uM_StaCorr,OxAveuM_StaCorr,FluorV,FluorQ,EstChl_CruiseCorr,EstChl_StaCorr,ISUSV,ISUSQ,EstNO3_CruiseCorr,EstNO3_StaCorr,SigThetaTS1,SigThetaTS1Q,SigThetaTS2,SigThetaTS2Q,BAT,XMiss,TransQ,pH,pHQ,SPAR,SPARQ,PAR,PARQ,PoT1,PoT2,DynHt,SVA,OxSat1,OxSat2,BTL_Depth,BTL_Temp,SaltB,OxB,OxBuM,Chl-a,Phaeo,NO3,NO2,NH4,PO4,SIL
CalCOFI,2101RL,065,,2101_065u,01-Feb-2021 05:03:52,31-Jan-2021 21:03:52,32.82236,-123.90116,080.0 100.0,080.0,100.0,519.000,523.338,,6.2813,,6.2815,,6.2814,34.2482,,34.2540,34.2468,,34.2488,34.2514,0.3865,,0.4044,0.4279,0.4005,,0.4234,0.4600,0.4440,16.809,17.8559,60.7015,17.418,19.1443,61.0702,60.8859,0.0323,,,, ,, , ,26.9286,,26.9275,,0.7238,83.4474,,,,1.9604E+00,,1.0000E-12,,6.2346,6.2348,1.0386,119.190,5.603,5.806,,,,,,,,,,,,
CalCOFI,2101RL,065,,2101_065u,01-Feb-2021 05:04:03,31-Jan-2021 21:04:03,32.82236,-123.90107,080.0 100.0,080.0,100.0,518.000,522.329,,6.2844,,6.2850,,6.2847,34.2486,,34.2544,34.2468,,34.2488,34.2516,0.3949,,0.4132,0.4368,0.3950,,0.4175,0.4541,0.4455,17.172,18.2358,60.8223,17.176,19.5479,60.9884,60.9054,0.0328,,,, ,, , ,26.9285,,26.9270,,0.7236,83.4506,,,,2.1584E+00,,1.0000E-12,,6.2378,6.2383,1.0389,119.189,5.725,5.726,,,,,,,,,,,,
CalCOFI,2101RL,065,,2101_065u,01-Feb-2021 05:04:07,31-Jan-2021 21:04:07,32.82236,-123.90108,080.0 100.0,080.0,100.0,517.000,521.319,,6.2860,,6.2866,,6.2863,34.2486,,34.2544,34.2469,,34.2489,34.2517,0.3938,,0.4121,0.4356,0.3959,,0.4185,0.4550,0.4453,17.127,18.1887,60.8073,17.218,19.4979,61.0026,60.9050,0.0323,,,, ,, , ,26.9283,,26.9269,,0.7236,83.4509,,,,2.0410E+00,,1.0000E-12,,6.2394,6.2400,1.0389,119.196,5.710,5.740,,,,,,,,,,,,
CalCOFI,2101RL,065,,2101_065u,01-Feb-2021 05:04:08,31-Jan-2021 21:04:08,32.82236,-123.90108,080.0 100.0,080.0,100.0,516.000,520.309,,6.2859,,6.2854,,6.2857,34.2486,,34.2544,34.2469,,34.2489,34.2517,0.4002,,0.4187,0.4424,0.3953,,0.4178,0.4544,0.4484,17.405,18.4798,60.8999,17.192,19.8070,60.9938,60.9469,0.0318,,,, ,, , ,26.9283,,26.9270,,0.7243,83.4382,,,,2.1334E+00,,1.0000E-12,,6.2394,6.2389,1.0389,119.180,5.802,5.731,516,,34.2504,0.420,18.29,,,,,,,
CalCOFI,2101RL,065,,2101_065u,01-Feb-2021 05:04:09,31-Jan-2021 21:04:09,32.82236,-123.90108,080.0 100.0,080.0,100.0,515.000,519.300,,6.2956,,6.2887,,6.2922,34.2485,,34.2543,34.2469,,34.2489,34.2516,0.4003,,0.4189,0.4425,0.3990,,0.4218,0.4584,0.4505,17.411,18.4860,60.9019,17.354,19.8137,61.0486,60.9753,0.0330,,,, ,, , ,26.9270,,26.9266,,0.7235,83.4527,,,,2.8354E+00,,1.0000E-12,,6.2492,6.2423,1.0389,119.303,5.806,5.786,,,,,,,,,,,,
CalCOFI,2101RL,065,,2101_065u,01-Feb-2021 05:04:10,31-Jan-2021 21:04:10,32.82236,-123.90108,080.0 100.0,080.0,100.0,514.000,518.290,,6.3064,,6.2963,,6.3014,34.2479,,34.2537,34.2464,,34.2484,34.2511,0.4044,,0.4231,0.4469,0.3998,,0.4226,0.4592,0.4531,17.588,18.6713,60.9608,17.388,20.0105,61.0601,61.0105,0.0330,,,, ,, , ,26.9251,,26.9252,,0.7235,83.4530,,,,3.2262E+00,,1.0000E-12,,6.2600,6.2500,1.0389,119.477,5.866,5.798,,,,,,,,,,,,
CalCOFI,2101RL,065,,2101_065u,01-Feb-2021 05:04:11,31-Jan-2021 21:04:11,32.82236,-123.90108,080.0 100.0,080.0,100.0,513.000,517.281,,6.3165,,6.3042,,6.3104,34.2475,,34.2533,34.2463,,34.2483,34.2508,0.4054,,0.4242,0.4479,0.4075,,0.4308,0.4675,0.4577,17.630,18.7153,60.9748,17.720,20.0572,61.1722,61.0735,0.0337,,,, ,, , ,26.9234,,26.9241,,0.7235,83.4530,,,,2.7285E+00,,1.0000E-12,,6.2702,6.2580,1.0389,119.631,5.882,5.910,,,,,,,,,,,,
CalCOFI,2101RL,065,,2101_065u,01-Feb-2021 05:04:12,31-Jan-2021 21:04:12,32.82236,-123.90108,080.0 100.0,080.0,100.0,512.000,516.271,,6.3284,,6.3106,,6.3195,34.2470,,34.2528,34.2461,,34.2481,34.2505,0.4062,,0.4250,0.4488,0.4005,,0.4234,0.4600,0.4544,17.665,18.7519,60.9864,17.419,20.0962,61.0705,61.0285,0.0327,,,, ,, , ,26.9215,,26.9231,,0.7237,83.4484,,,,3.2371E+00,,1.0000E-12,,6.2822,6.2644,1.0389,119.811,5.895,5.810,,,,,,,,,,,,
CalCOFI,2101RL,065,,2101_065u,01-Feb-2021 05:04:13,31-Jan-2021 21:04:13,32.82236,-123.90108,080.0 100.0,080.0,100.0,511.000,515.261,,6.3370,,6.3285,,6.3328,34.2473,,34.2531,34.2453,,34.2473,34.2502,0.4037,,0.4224,0.4461,0.4038,,0.4269,0.4635,0.4548,17.556,18.6378,60.9501,17.560,19.9750,61.1182,61.0342,0.0325,,,, ,, , ,26.9206,,26.9202,,0.7239,83.4446,,,,2.1788E+00,,1.0000E-12,,6.2908,6.2823,1.0389,119.889,5.860,5.860,,,,,,,,,,,,
CalCOFI,2101RL,065,,2101_065u,01-Feb-2021 05:04:14,31-Jan-2021 21:04:14,32.82236,-123.90110,080.0 100.0,080.0,100.0,510.000,514.252,,6.3394,,6.3324,,6.3359,34.2473,,34.2531,34.2455,,34.2475,34.2503,0.4107,,0.4297,0.4535,0.4141,,0.4378,0.4746,0.4641,17.859,18.9550,61.0510,18.009,20.3119,61.2699,61.1605,0.0328,,,, ,, , ,26.9203,,26.9198,,0.7243,83.4370,,,,1.9946E+00,,1.0000E-12,,6.2933,6.2863,1.0389,119.910,5.961,6.010,,,,,,,,,,,,
CalCOFI,2101RL,065,,2101_065u,01-Feb-2021 05:04:15,31-Jan-2021 21:04:15,32.82236,-123.90110,080.0 100.0,080.0,100.0,509.000,513.242,,6.3443,,6.3415,,6.3429,34.2469,,34.2527,34.2456,,34.2476,34.2502,0.4117,,0.4308,0.4546,0.4061,,0.4293,0.4660,0.4603,17.906,19.0042,61.0666,17.661,20.3642,61.1523,61.1095,0.0327,,,, ,, , ,26.9193,,26.9187,,0.7235,83.4531,,,,2.3352E+00,,1.0000E-12,,6.2983,6.2955,1.0389,119.992,5.977,5.895,,,,,,,,,,,,
CalCOFI,2101RL,065,,2101_065u,01-Feb-2021 05:04:16,31-Jan-2021 21:04:16,32.82236,-123.90110,080.0 100.0,080.0,100.0,508.000,512.233,,6.3448,,6.3439,,6.3444,34.2464,,34.2522,34.2453,,34.2473,34.2498,0.4140,,0.4332,0.4570,0.4079,,0.4312,0.4679,0.4625,18.003,19.1057,61.0989,17.738,20.4720,61.1783,61.1386,0.0326,,,, ,, , ,26.9189,,26.9181,,0.7235,83.4530,,,,2.7108E+00,,1.0000E-12,,6.2989,6.2980,1.0389,120.020,6.010,5.921,,,,,,,,,,,,
CalCOFI,2101RL,065,,2101_065u,01-Feb-2021 05:04:17,31-Jan-2021 21:04:17,32.82236,-123.90110,080.0 100.0,080.0,100.0,507.000,511.223,,6.3457,,6.3432,,6.3445,34.2448,,34.2506,34.2445,,34.2465,34.2486,0.4188,,0.4382,0.4621,0.4154,,0.4392,0.4760,0.4691,18.214,19.3266,61.1691,18.064,20.7067,61.2885,61.2288,0.0325,,,, ,, , ,26.9175,,26.9175,,0.7235,83.4530,,,,2.3088E+00,,1.0000E-12,,6.2999,6.2973,1.0389,120.138,6.081,6.030,,,,,,,,,,,,
CalCOFI,2101RL,065,,2101_065u,01-Feb-2021 05:04:17,31-Jan-2021 21:04:17,32.82236,-123.90110,080.0 100.0,080.0,100.0,506.000,510.213,,6.3519,,6.3501,,6.3510,34.2454,,34.2512,34.2436,,34.2456,34.2484,0.4220,,0.4416,0.4655,0.4168,,0.4407,0.4775,0.4715,18.352,19.4711,61.2151,18.126,20.8601,61.3094,61.2623,0.0326,,,, ,, , ,26.9172,,26.9160,,0.7235,83.4530,,,,2.5696E+00,,1.0000E-12,,6.3062,6.3044,1.0389,120.162,6.127,6.052,,,,,,,,,,,,
CalCOFI,2101RL,065,,2101_065u,01-Feb-2021 05:04:18,31-Jan-2021 21:04:18,32.82236,-123.90110,080.0 100.0,080.0,100.0,505.000,509.204,,6.3616,,6.3597,,6.3607,34.2452,,34.2510,34.2439,,34.2459,34.2485,0.4303,,0.4503,0.4743,0.4191,,0.4431,0.4799,0.4771,18.713,19.8490,61.3352,18.226,21.2616,61.3432,61.3392,0.0325,,,, ,, , ,26.9157,,26.9150,,0.7239,83.4455,,,,2.7239E+00,,1.0000E-12,,6.3159,6.3140,1.0389,120.294,6.249,6.086,,,,,,,,,,,,
CalCOFI,2101RL,065,,2101_065u,01-Feb-2021 05:04:19,31-Jan-2021 21:04:19,32.82236,-123.90110,080.0 100.0,080.0,100.0,504.000,508.194,,6.3653,,6.3647,,6.3650,34.2444,,34.2502,34.2434,,34.2454,34.2478,0.4393,,0.4597,0.4838,0.4251,,0.4495,0.4864,0.4851,19.103,20.2572,61.4650,18.485,21.6952,61.4307,61.4479,0.0326,,,, ,, , ,26.9146,,26.9139,,0.7235,83.4531,,,,1.8363E+00,,1.0000E-12,,6.3197,6.3191,1.0389,120.389,6.380,6.174,,,,,,,,,,,,
CalCOFI,2101RL,065,,2101_065u,01-Feb-2021 05:04:20,31-Jan-2021 21:04:20,32.82236,-123.90110,080.0 100.0,080.0,100.0,503.000,507.185,,6.3558,,6.3588,,6.3573,34.2414,,34.2472,34.2408,,34.2428,34.2450,0.4476,,0.4684,0.4926,0.4270,,0.4515,0.4884,0.4905,19.466,20.6372,61.5858,18.569,22.0989,61.4591,61.5225,0.0333,,,, ,, , ,26.9135,,26.9126,,0.7235,83.4530,,,,2.2638E+00,,1.0000E-12,,6.3103,6.3133,1.0389,120.471,6.500,6.201,,,,,,,,,,,,
CalCOFI,2101RL,065,,2101_065u,01-Feb-2021 05:04:20,31-Jan-2021 21:04:20,32.82236,-123.90110,080.0 100.0,080.0,100.0,502.000,506.175,,6.3395,,6.3426,,6.3411,34.2371,,34.2429,34.2363,,34.2383,34.2406,0.4580,,0.4792,0.5036,0.4405,,0.4659,0.5029,0.5033,19.920,21.1125,61.7369,19.157,22.6038,61.6578,61.6974,0.0331,,,, ,, , ,26.9121,,26.9111,,0.7243,83.4363,,,,2.6082E+00,,1.0000E-12,,6.2941,6.2972,1.0389,120.560,6.649,6.394,,,,,,,,,,,,
CalCOFI,2101RL,065,,2101_065u,01-Feb-2021 05:04:21,31-Jan-2021 21:04:21,32.82236,-123.90110,080.0 100.0,080.0,100.0,501.000,505.166,,6.3326,,6.3334,,6.3330,34.2347,,34.2405,34.2337,,34.2357,34.2381,0.4698,,0.4916,0.5161,0.4499,,0.4758,0.5130,0.5146,20.432,21.6484,61.9073,19.565,23.1731,61.7957,61.8515,0.0330,,,, ,, , ,26.9112,,26.9103,,0.7244,83.4347,,,,3.6802E+00,,1.0000E-12,,6.2874,6.2882,1.0389,120.629,6.819,6.529,,,,,,,,,,,,
CalCOFI,2101RL,065,,2101_065u,01-Feb-2021 05:04:22,31-Jan-2021 21:04:22,32.82236,-123.90110,080.0 100.0,080.0,100.0,500.000,504.156,,6.3211,,6.3270,,6.3241,34.2312,,34.2370,34.2311,,34.2331,34.2351,0.4860,,0.5085,0.5333,0.4609,,0.4875,0.5248,0.5291,21.135,22.3843,62.1413,20.044,23.9549,61.9575,62.0494,0.0326,,,, ,, , ,26.9098,,26.9090,,0.7244,83.4359,,,,2.8973E+00,,1.0000E-12,,6.2760,6.2819,1.0389,120.723,7.051,6.688,,,,,,,,,,,,
CalCOFI,2101RL,065,,2101_065u,01-Feb-2021 05:04:23,31-Jan-2021 21:04:23,32.82236,-123.90110,080.0 100.0,080.0,100.0,499.000,503.147,,6.3011,,6.3121,,6.3066,34.2256,,34.2314,34.2272,,34.2292,34.2303,0.5056,,0.5291,0.5541,0.4710,,0.4982,0.5357,0.5449,21.990,23.2793,62.4259,20.483,24.9056,62.1058,62.2659,0.0334,,,, ,, , ,26.9079,,26.9078,,0.7235,83.4528,,,,2.7244E+00,,1.0000E-12,,6.2562,6.2672,1.0389,120.863,7.333,6.832,,,,,,,,,,,,
CalCOFI,2101RL,065,,2101_065u,01-Feb-2021 05:04:23,31-Jan-2021 21:04:23,32.82236,-123.90110,080.0 100.0,080.0,100.0,498.000,502.137,,6.2824,,6.2927,,6.2876,34.2193,,34.2251,34.2200,,34.2220,34.2236,0.5241,,0.5484,0.5737,0.4858,,0.5140,0.5516,0.5627,22.794,24.1210,62.6935,21.126,25.7997,62.3231,62.5083,0.0326,,,, ,, , ,26.9053,,26.9046,,0.7235,83.4530,,,,3.1375E+00,,1.0000E-12,,6.2377,6.2480,1.0389,121.071,7.597,7.043,,,,,,,,,,,,
CalCOFI,2101RL,065,,2101_065u,01-Feb-2021 05:04:24,31-Jan-2021 21:04:24,32.82236,-123.90108,080.0 100.0,080.0,100.0,497.000,501.128,,6.2597,,6.2666,,6.2632,34.2113,,34.2171,34.2122,,34.2142,34.2157,0.5362,,0.5611,0.5865,0.5087,,0.5383,0.5761,0.5813,23.317,24.6684,62.8675,22.122,26.3813,62.6597,62.7636,0.0322,,,, ,, , ,26.9020,,26.9018,,0.7235,83.4530,,,,1.8555E+00,,1.0000E-12,,6.2152,6.2220,1.0389,121.345,7.767,7.370,,,,,,,,,,,,
CalCOFI,2101RL,065,,2101_065u,01-Feb-2021 05:04:25,31-Jan-2021 21:04:25,32.82236,-123.90108,080.0 100.0,080.0,100.0,496.000,500.118,,6.2290,,6.2519,,6.2405,34.2018,,34.2076,34.2079,,34.2099,34.2088,0.5430,,0.5682,0.5937,0.5163,,0.5464,0.5843,0.5890,23.614,24.9793,62.9664,22.452,26.7115,62.7712,62.8688,0.0330,,,, ,, , ,26.8984,,26.9003,,0.7235,83.4530,,,,2.4796E+00,,1.0000E-12,,6.1846,6.2075,1.0389,121.629,7.860,7.477,,,,,,,,,,,,
CalCOFI,2101RL,065,,2101_065u,01-Feb-2021 05:04:26,31-Jan-2021 21:04:26,32.82236,-123.90108,080.0 100.0,080.0,100.0,495.000,499.108,,6.2220,,6.2282,,6.2251,34.1986,,34.2044,34.1985,,34.2005,34.2025,0.5440,,0.5693,0.5947,0.5337,,0.5648,0.6030,0.5989,23.657,25.0243,62.9807,23.212,26.7594,63.0280,63.0044,0.0328,,,, ,, , ,26.8967,,26.8959,,0.7235,83.4530,,,,1.8559E+00,,1.0000E-12,,6.1778,6.1839,1.0389,121.762,7.872,7.725,,,,,,,,,,,,
CalCOFI,2101RL,065,,2101_065u,01-Feb-2021 05:04:27,31-Jan-2021 21:04:27,32.82236,-123.90108,080.0 100.0,080.0,100.0,494.000,498.099,,6.2306,,6.2290,,6.2298,34.1988,,34.2046,34.1979,,34.1999,34.2023,0.5348,,0.5596,0.5850,0.5282,,0.5590,0.5971,0.5911,23.258,24.6067,62.8479,22.971,26.3157,62.9465,62.8972,0.0321,,,, ,, , ,26.8958,,26.8953,,0.7235,83.4530,,,,2.8940E+00,,1.0000E-12,,6.1864,6.1849,1.0389,121.847,7.741,7.645,,,,,,,,,,,,
CalCOFI,2101RL,065,,2101_065u,01-Feb-2021 05:04:28,31-Jan-2021 21:04:28,32.82236,-123.90108,080.0 100.0,080.0,100.0,493.000,497.090,,6.2615,,6.2431,,6.2523,34.2013,,34.2071,34.1983,,34.2003,34.2037,0.5343,,0.5591,0.5845,0.5335,,0.5646,0.6028,0.5937,23.234,24.5816,62.8399,23.201,26.2890,63.0243,62.9321,0.0324,,,, ,, , ,26.8938,,26.8938,,0.7237,83.4490,,,,3.1608E+00,,1.0000E-12,,6.2173,6.1990,1.0389,122.054,7.739,7.725,,,,,,,,,,,,
CalCOFI,2101RL,065,,2101_065u,01-Feb-2021 05:04:29,31-Jan-2021 21:04:29,32.82236,-123.90108,080.0 100.0,080.0,100.0,492.000,496.080,,6.3100,,6.2906,,6.3003,34.2067,,34.2125,34.2033,,34.2053,34.2089,0.5315,,0.5562,0.5815,0.5258,,0.5565,0.5945,0.5880,23.117,24.4591,62.8010,22.868,26.1589,62.9117,62.8564,0.0321,,,, ,, , ,26.8918,,26.8916,,0.7239,83.4455,,,,2.4277E+00,,1.0000E-12,,6.2658,6.2464,1.0389,122.290,7.709,7.622,,,,,,,,,,,,
CalCOFI,2101RL,065,,2101_065u,01-Feb-2021 05:04:30,31-Jan-2021 21:04:30,32.82236,-123.90108,080.0 100.0,080.0,100.0,491.000,495.071,,6.3147,,6.3008,,6.3078,34.2066,,34.2124,34.2053,,34.2073,34.2099,0.5273,,0.5518,0.5770,0.5239,,0.5544,0.5925,0.5848,22.933,24.2665,62.7397,22.786,25.9543,62.8840,62.8119,0.0317,,,, ,, , ,26.8911,,26.8918,,0.7241,83.4412,,,,3.1392E+00,,1.0000E-12,,6.2706,6.2567,1.0389,122.344,7.648,7.597,,,,,,,,,,,,
CalCOFI,2101RL,065,,2101_065u,01-Feb-2021 05:04:31,31-Jan-2021 21:04:31,32.82236,-123.90110,080.0 100.0,080.0,100.0,490.000,494.061,,6.3066,,6.3025,,6.3046,34.2062,,34.2120,34.2045,,34.2065,34.2093,0.5318,,0.5565,0.5818,0.5262,,0.5569,0.5949,0.5884,23.128,24.4706,62.8046,22.887,26.1711,62.9182,62.8614,0.0325,,,, ,, , ,26.8918,,26.8910,,0.7257,83.4072,,,,3.1659E+00,,1.0000E-12,,6.2626,6.2585,1.0389,122.254,7.712,7.630,,,,,,,,,,,,
CalCOFI,2101RL,065,,2101_065u,01-Feb-2021 05:04:32,31-Jan-2021 21:04:32,32.82236,-123.90110,080.0 100.0,080.0,100.0,489.000,493.052,,6.2985,,6.2942,,6.2964,34.2065,,34.2123,34.2039,,34.2059,34.2091,0.5620,,0.5881,0.6138,0.5397,,0.5712,0.6094,0.6116,24.443,25.8471,63.2423,23.473,27.6334,63.1162,63.1793,0.0325,,,, ,, , ,26.8931,,26.8916,,0.7281,83.3575,,,,2.0942E+00,,1.0000E-12,,6.2545,6.2503,1.0389,122.109,8.149,7.825,,,,,,,,,,,,
CalCOFI,2101RL,065,,2101_065u,01-Feb-2021 05:04:33,31-Jan-2021 21:04:33,32.82236,-123.90110,080.0 100.0,080.0,100.0,488.000,492.042,,6.2974,,6.3021,,6.2998,34.2021,,34.2079,34.2008,,34.2028,34.2054,0.5836,,0.6107,0.6367,0.5583,,0.5910,0.6294,0.6331,25.383,26.8311,63.5551,24.279,28.6787,63.3885,63.4718,0.0326,,,, ,, , ,26.8898,,26.8881,,0.7243,83.4370,,,,1.8365E+00,,1.0000E-12,,6.2535,6.2582,1.0389,122.407,8.462,8.095,,,,,,,,,,,,
CalCOFI,2101RL,065,,2101_065u,01-Feb-2021 05:04:34,31-Jan-2021 21:04:34,32.82238,-123.90108,080.0 100.0,080.0,100.0,487.000,491.033,,6.2801,,6.2867,,6.2834,34.1922,,34.1980,34.1926,,34.1946,34.1963,0.5938,,0.6214,0.6475,0.5662,,0.5994,0.6379,0.6427,25.824,27.2928,63.7019,24.624,29.1691,63.5051,63.6035,0.0330,,,, ,, , ,26.8842,,26.8836,,0.7235,83.4530,,,,2.2160E+00,,1.0000E-12,,6.2365,6.2430,1.0389,122.895,8.605,8.206,,,,,,,,,,,,
CalCOFI,2101RL,065,,2101_065u,01-Feb-2021 05:04:35,31-Jan-2021 21:04:35,32.82238,-123.90108,080.0 100.0,080.0,100.0,486.000,490.023,,6.2703,,6.2773,,6.2738,34.1896,,34.1954,34.1901,,34.1921,34.1938,0.5998,,0.6277,0.6538,0.5756,,0.6093,0.6480,0.6509,26.086,27.5670,63.7891,25.033,29.4605,63.6433,63.7162,0.0330,,,, ,, , ,26.8833,,26.8828,,0.7235,83.4530,,,,2.4122E+00,,1.0000E-12,,6.2267,6.2337,1.0389,122.950,8.690,8.340,,,,,,,,,,,,
CalCOFI,2101RL,065,,2101_065u,01-Feb-2021 05:04:35,31-Jan-2021 21:04:35,32.82238,-123.90108,080.0 100.0,080.0,100.0,485.000,489.014,,6.2631,,6.2635,,6.2633,34.1874,,34.1932,34.1854,,34.1874,34.1903,0.6078,,0.6360,0.6623,0.5854,,0.6198,0.6585,0.6604,26.432,27.9292,63.9043,25.461,29.8452,63.7879,63.8461,0.0330,,,, ,, , ,26.8825,,26.8809,,0.7235,83.4530,,,,1.8558E+00,,1.0000E-12,,6.2197,6.2201,1.0389,123.001,8.803,8.480,,,,,,,,,,,,
CalCOFI,2101RL,065,,2101_065u,01-Feb-2021 05:04:36,31-Jan-2021 21:04:36,32.82238,-123.90108,080.0 100.0,080.0,100.0,484.000,488.004,,6.2610,,6.2596,,6.2603,34.1858,,34.1916,34.1840,,34.1860,34.1888,0.6179,,0.6466,0.6730,0.5921,,0.6269,0.6657,0.6694,26.873,28.3909,64.0510,25.752,30.3356,63.8862,63.9686,0.0324,,,, ,, , ,26.8815,,26.8803,,0.7235,83.4530,,,,1.8474E+00,,1.0000E-12,,6.2177,6.2163,1.0389,123.079,8.950,8.576,,,,,,,,,,,,
CalCOFI,2101RL,065,,2101_065u,01-Feb-2021 05:04:36,31-Jan-2021 21:04:36,32.82238,-123.90108,080.0 100.0,080.0,100.0,483.000,486.995,,6.2578,,6.2584,,6.2581,34.1842,,34.1900,34.1830,,34.1850,34.1875,0.6308,,0.6601,0.6867,0.5990,,0.6342,0.6731,0.6799,27.433,28.9771,64.2374,26.053,30.9583,63.9879,64.1127,0.0320,,,, ,, , ,26.8807,,26.8796,,0.7237,83.4498,,,,1.8474E+00,,1.0000E-12,,6.2146,6.2152,1.0389,123.140,9.136,8.676,,,,,,,,,,,,
CalCOFI,2101RL,065,,2101_065u,01-Feb-2021 05:04:37,31-Jan-2021 21:04:37,32.82237,-123.90108,080.0 100.0,080.0,100.0,482.000,485.985,,6.2493,,6.2546,,6.2520,34.1804,,34.1862,34.1811,,34.1831,34.1847,0.6485,,0.6786,0.7054,0.6068,,0.6425,0.6815,0.6935,28.204,29.7841,64.4940,26.390,31.8157,64.1018,64.2979,0.0322,,,, ,, , ,26.8787,,26.8786,,0.7235,83.4531,,,,1.8474E+00,,1.0000E-12,,6.2062,6.2115,1.0389,123.300,9.390,8.787,,,,,,,,,,,,
CalCOFI,2101RL,065,,2101_065u,01-Feb-2021 05:04:38,31-Jan-2021 21:04:38,32.82236,-123.90108,080.0 100.0,080.0,100.0,481.000,484.976,,6.2415,,6.2505,,6.2460,34.1769,,34.1827,34.1793,,34.1813,34.1820,0.6630,,0.6938,0.7208,0.6257,,0.6626,0.7018,0.7113,28.835,30.4447,64.7040,27.212,32.5174,64.3796,64.5418,0.0329,,,, ,, , ,26.8770,,26.8777,,0.7235,83.4530,,,,1.8474E+00,,1.0000E-12,,6.1986,6.2075,1.0389,123.440,9.598,9.060,,,,,,,,,,,,
CalCOFI,2101RL,065,,2101_065u,01-Feb-2021 05:04:39,31-Jan-2021 21:04:39,32.82236,-123.90108,080.0 100.0,080.0,100.0,480.000,483.967,,6.2143,,6.2247,,6.2195,34.1678,,34.1736,34.1698,,34.1718,34.1727,0.6636,,0.6944,0.7214,0.6437,,0.6817,0.7211,0.7213,28.861,30.4719,64.7127,27.997,32.5463,64.6448,64.6788,0.0320,,,, ,, , ,26.8732,,26.8734,,0.7235,83.4530,,,,2.7618E+00,,1.0000E-12,,6.1716,6.1819,1.0389,123.746,9.600,9.315,,,,,,,,,,,,
CalCOFI,2101RL,065,,2101_065u,01-Feb-2021 05:04:39,31-Jan-2021 21:04:39,32.82236,-123.90108,080.0 100.0,080.0,100.0,479.000,482.957,,6.1927,,6.2078,,6.2003,34.1618,,34.1676,34.1648,,34.1668,34.1672,0.6573,,0.6878,0.7148,0.6516,,0.6901,0.7296,0.7222,28.586,30.1840,64.6212,28.338,32.2405,64.7600,64.6906,0.0325,,,, ,, , ,26.8712,,26.8717,,0.7235,83.4530,,,,2.5786E+00,,1.0000E-12,,6.1502,6.1651,1.0389,123.895,9.503,9.424,,,,,,,,,,,,
CalCOFI,2101RL,065,,2101_065u,01-Feb-2021 05:04:41,31-Jan-2021 21:04:41,32.82236,-123.90108,080.0 100.0,080.0,100.0,478.000,481.948,,6.2011,,6.1902,,6.1957,34.1647,,34.1705,34.1584,,34.1604,34.1655,0.6582,,0.6888,0.7157,0.6671,,0.7065,0.7462,0.7310,28.628,30.2280,64.6351,29.012,32.2872,64.9878,64.8115,0.0326,,,, ,, , ,26.8724,,26.8688,,0.7235,83.4530,,,,2.2808E+00,,1.0000E-12,,6.1585,6.1477,1.0389,123.778,9.519,9.644,,,,,,,,,,,,
CalCOFI,2101RL,065,,2101_065u,01-Feb-2021 05:04:43,31-Jan-2021 21:04:43,32.82237,-123.90108,080.0 100.0,080.0,100.0,477.000,480.938,,6.2039,,6.1818,,6.1929,34.1636,,34.1694,34.1515,,34.1535,34.1615,0.7302,,0.7641,0.7920,0.6994,,0.7408,0.7809,0.7865,31.756,33.5024,65.6762,30.420,35.7656,65.4636,65.5699,0.0326,,,, ,, , ,26.8712,,26.8645,,0.7249,83.4242,,,,2.1591E+00,,1.0000E-12,,6.1614,6.1395,1.0389,123.882,10.560,10.110,,,,,,,,,,,,
CalCOFI,2101RL,065,,2101_065u,01-Feb-2021 05:04:45,31-Jan-2021 21:04:45,32.82238,-123.90106,080.0 100.0,080.0,100.0,476.000,479.929,,6.1773,,6.1747,,6.1760,34.1481,,34.1539,34.1459,,34.1479,34.1509,0.7621,,0.7975,0.8258,0.7266,,0.7697,0.8101,0.8180,33.145,34.9564,66.1385,31.600,37.3102,65.8623,66.0004,0.0321,,,, ,, , ,26.8623,,26.8609,,0.7235,83.4533,,,,1.9213E+00,,1.0000E-12,,6.1350,6.1324,1.0389,124.670,11.014,10.500,,,,,,,,,,,,
CalCOFI,2101RL,065,,2101_065u,01-Feb-2021 05:04:45,31-Jan-2021 21:04:45,32.82238,-123.90106,080.0 100.0,080.0,100.0,475.000,478.919,,6.1718,,6.1736,,6.1727,34.1387,,34.1445,34.1401,,34.1421,34.1433,0.7741,,0.8101,0.8385,0.7347,,0.7783,0.8188,0.8287,33.666,35.5018,66.3119,31.955,37.8895,65.9822,66.1471,0.0328,,,, ,, , ,26.8556,,26.8565,,0.7235,83.4530,,,,2.3395E+00,,1.0000E-12,,6.1297,6.1315,1.0389,125.283,11.185,10.617,,,,,,,,,,,,
CalCOFI,2101RL,065,,2101_065u,01-Feb-2021 05:04:46,31-Jan-2021 21:04:46,32.82238,-123.90106,080.0 100.0,080.0,100.0,474.000,477.910,,6.1733,,6.1735,,6.1734,34.1377,,34.1435,34.1381,,34.1401,34.1418,0.7881,,0.8247,0.8533,0.7520,,0.7967,0.8374,0.8454,34.276,36.1403,66.5149,32.704,38.5679,66.2353,66.3751,0.0324,,,, ,, , ,26.8546,,26.8549,,0.7235,83.4530,,,,1.8429E+00,,1.0000E-12,,6.1312,6.1314,1.0389,125.362,11.388,10.866,,,,,,,,,,,,
CalCOFI,2101RL,065,,2101_065u,01-Feb-2021 05:04:47,31-Jan-2021 21:04:47,32.82237,-123.90105,080.0 100.0,080.0,100.0,473.000,476.900,,6.1733,,6.1735,,6.1734,34.1359,,34.1417,34.1351,,34.1371,34.1394,0.7996,,0.8368,0.8655,0.7675,,0.8132,0.8540,0.8598,34.776,36.6637,66.6813,33.381,39.1239,66.4641,66.5727,0.0326,,,, ,, , ,26.8531,,26.8525,,0.7235,83.4530,,,,1.8474E+00,,1.0000E-12,,6.1314,6.1315,1.0389,125.488,11.554,11.090,,,,,,,,,,,,
CalCOFI,2101RL,065,,2101_065u,01-Feb-2021 05:04:47,31-Jan-2021 21:04:47,32.82236,-123.90104,080.0 100.0,080.0,100.0,472.000,475.891,,6.1732,,6.1735,,6.1734,34.1331,,34.1389,34.1323,,34.1343,34.1366,0.8058,,0.8433,0.8721,0.7775,,0.8238,0.8648,0.8685,35.045,36.9453,66.7709,33.817,39.4230,66.6114,66.6912,0.0326,,,, ,, , ,26.8509,,26.8502,,0.7235,83.4530,,,,2.2350E+00,,1.0000E-12,,6.1314,6.1316,1.0389,125.681,11.643,11.235,,,,,,,,,,,,
CalCOFI,2101RL,065,,2101_065u,01-Feb-2021 05:04:48,31-Jan-2021 21:04:48,32.82236,-123.90104,080.0 100.0,080.0,100.0,471.000,474.882,,6.1725,,6.1727,,6.1726,34.1307,,34.1365,34.1291,,34.1311,34.1338,0.8090,,0.8466,0.8754,0.7882,,0.8351,0.8763,0.8759,35.184,37.0908,66.8171,34.282,39.5776,66.7685,66.7928,0.0328,,,, ,, , ,26.8491,,26.8478,,0.7235,83.4530,,,,1.8564E+00,,1.0000E-12,,6.1307,6.1310,1.0389,125.836,11.689,11.389,,,,,,,,,,,,
CalCOFI,2101RL,065,,2101_065u,01-Feb-2021 05:04:49,31-Jan-2021 21:04:49,32.82236,-123.90104,080.0 100.0,080.0,100.0,470.000,473.872,,6.1716,,6.1719,,6.1718,34.1283,,34.1341,34.1272,,34.1292,34.1317,0.8094,,0.8470,0.8759,0.7934,,0.8407,0.8818,0.8789,35.204,37.1117,66.8238,34.509,39.5998,66.8452,66.8345,0.0313,,,, ,, , ,26.8474,,26.8464,,0.7235,83.4530,,,,1.8474E+00,,1.0000E-12,,6.1299,6.1303,1.0389,125.986,11.695,11.464,,,,,,,,,,,,
CalCOFI,2101RL,065,,2101_065u,01-Feb-2021 05:04:49,31-Jan-2021 21:04:49,32.82236,-123.90104,080.0 100.0,080.0,100.0,469.000,472.863,,6.1744,,6.1740,,6.1742,34.1273,,34.1331,34.1257,,34.1277,34.1304,0.8103,,0.8480,0.8768,0.7969,,0.8444,0.8856,0.8812,35.241,37.1505,66.8361,34.659,39.6410,66.8959,66.8660,0.0326,,,, ,, , ,26.8462,,26.8450,,0.7270,83.3811,,,,2.0924E+00,,1.0000E-12,,6.1328,6.1324,1.0389,126.086,11.708,11.515,,,,,,,,,,,,
CalCOFI,2101RL,065,,2101_065u,01-Feb-2021 05:04:50,31-Jan-2021 21:04:50,32.82236,-123.90104,080.0 100.0,080.0,100.0,468.000,471.853,,6.1763,,6.1762,,6.1763,34.1263,,34.1321,34.1247,,34.1267,34.1294,0.8075,,0.8450,0.8739,0.7951,,0.8425,0.8837,0.8788,35.122,37.0259,66.7965,34.580,39.5086,66.8692,66.8329,0.0333,,,, ,, , ,26.8451,,26.8439,,0.7261,83.3988,,,,2.0650E+00,,1.0000E-12,,6.1348,6.1347,1.0389,126.172,11.669,11.489,,,,,,,,,,,,
CalCOFI,2101RL,065,,2101_065u,01-Feb-2021 05:04:51,31-Jan-2021 21:04:51,32.82236,-123.90106,080.0 100.0,080.0,100.0,467.000,470.844,,6.1787,,6.1776,,6.1782,34.1262,,34.1320,34.1247,,34.1267,34.1294,0.7983,,0.8354,0.8641,0.7933,,0.8406,0.8817,0.8729,34.718,36.6030,66.6620,34.502,39.0594,66.8429,66.7525,0.0323,,,, ,, , ,26.8447,,26.8437,,0.7236,83.4519,,,,2.0780E+00,,1.0000E-12,,6.1373,6.1362,1.0389,126.197,11.535,11.463,,,,,,,,,,,,